Tracking 19242 objects as of 20-Sep-2018
HD Live streaming from Space Station
objects crossing your sky now

FENGYUN 1C DEB

Track FENGYUN 1C DEB now!
10-day predictions


NORAD ID: 31500
Int'l Code: 1999-025BWP
Perigee: 413.9 km
Apogee: 753.2 km
Inclination: 98.9 °
Period: 96.2 minutes
Semi major axis: 6954 km
RCS: 0.0149 m2 (small)
Launch date: May 10, 1999
Source: People's Republic of China (PRC)
Launch site: Taiyaun Space Center, China (TSC)

Note: This is SATELLITE DEBRIS
aabbcc
Your satellite tracking list
Your tracking list is empty




NASA's NSSDC Master Catalog

Two Line Element Set (TLE):
1 31500U 99025BWP 18262.53462586 +.00005094 +00000-0 +24477-3 0  9997
2 31500 098.8876 157.7417 0243982 208.2600 150.5202 14.96923354365808
Source of the keplerian elements: AFSPC